Bartow, FL

7:13 PM EST on December 15, 2019 (GMT -0500)
Bartow Municipal

Weather History for KBOW - November, 2019

Change the Weather History Date:

Wednesday, November 20, 2019

  Actual Average Record
Temperature  
Mean Temperature 58 °F -  
Max Temperature 73 °F 79 °F 89 °F (1950)
Min Temperature 44 °F 58 °F 34 °F (1951)
Degree Days  
Heating Degree Days 6    
Growing Degree Days 8 (Base 50)    
Moisture  
Dew Point 47 °F    
Average Humidity 80    
Maximum Humidity 100    
Minimum Humidity 33    
Precipitation  
Precipitation 0.00 in - - ()
Sea Level Pressure  
Sea Level Pressure 30.11 in    
Wind  
Wind Speed 1 mph ()    
Max Wind Speed 12 mph    
Max Gust Speed -    
Visibility 9.2 miles    
Events Fog    
Averages and records for this station are not official NWS values.
T = Trace of Precipitation, MM = Missing Value Source: Averaged Metar Reports

Daily Weather History Graph

Daily Weather History Graph

Search for Another Location

Airport or City:

Astronomy

Nov. 20, 2019 Rise Set
Actual Time 6:52 AM EST 5:32 PM EST
Civil Twilight 6:27 AM EST 5:57 PM EST
Nautical Twilight 5:58 AM EST 6:26 PM EST
Astronomical Twilight 5:30 AM EST 6:54 PM EST
Moon 12:21 AM EST (11/20) 1:46 PM EST (11/20)
Length of Visible Light 11h 30m
Length of Day
10h 40m
Last Quarter, 41% of the Moon is Illuminated
Nov 20
Last Quarter
Nov 26
New
Dec 4
First Quarter
Dec 12
Full
Dec 18
Last Quarter

Hourly Weather History & Observations

Time (EST) Temp. Dew Point Humidity Pressure Visibility Wind Dir Wind Speed Gust Speed Precip Events Conditions
12:10 AM 48.2 °F 46.4 °F 93% 30.05 in 10.0 mi Calm Calm - N/A   Clear
12:15 AM 50.0 °F 46.4 °F 87% 30.05 in 10.0 mi Calm Calm - N/A   Clear
12:35 AM 50.0 °F 46.4 °F 87% 30.05 in 10.0 mi Calm Calm - N/A   Clear
12:55 AM 48.2 °F 46.4 °F 93% 30.05 in 10.0 mi Calm Calm - N/A   Partly Cloudy
1:15 AM 50.0 °F 46.4 °F 87% 30.05 in 10.0 mi Calm Calm - N/A   Partly Cloudy
1:35 AM 48.2 °F 46.4 °F 93% 30.04 in 10.0 mi Calm Calm - N/A   Partly Cloudy
1:55 AM 48.2 °F 46.4 °F 93% 30.04 in 10.0 mi Calm Calm - N/A   Scattered Clouds
2:15 AM 48.2 °F 46.4 °F 93% 30.05 in 10.0 mi Calm Calm - N/A   Scattered Clouds
2:35 AM 48.2 °F 46.4 °F 93% 30.05 in 9.0 mi Calm Calm - N/A   Partly Cloudy
2:55 AM 46.4 °F 46.4 °F 100% 30.05 in 2.5 mi Calm Calm - N/A   Scattered Clouds
3:35 AM 46.4 °F 44.6 °F 93% 30.05 in 9.0 mi Calm Calm - N/A   Clear
3:55 AM 48.2 °F 44.6 °F 87% 30.06 in 10.0 mi Calm Calm - N/A   Clear
4:15 AM 46.4 °F 44.6 °F 93% 30.06 in 10.0 mi Calm Calm - N/A   Clear
4:35 AM 46.4 °F 44.6 °F 93% 30.06 in 9.0 mi Calm Calm - N/A   Clear
4:55 AM 46.4 °F 44.6 °F 93% 30.06 in 10.0 mi Calm Calm - N/A   Clear
5:15 AM 46.4 °F 44.6 °F 93% 30.07 in 10.0 mi Calm Calm - N/A   Clear
5:35 AM 46.4 °F 44.6 °F 93% 30.08 in 10.0 mi Calm Calm - N/A   Clear
5:55 AM 46.4 °F 42.8 °F 87% 30.09 in 10.0 mi Calm Calm - N/A   Clear
6:15 AM 44.6 °F 42.8 °F 93% 30.09 in 10.0 mi Calm Calm - N/A   Clear
6:35 AM 44.6 °F 44.6 °F 100% 30.10 in 4.0 mi Calm Calm - N/A   Clear
6:55 AM 44.6 °F 42.8 °F 93% 30.11 in 6.0 mi Calm Calm - N/A   Clear
7:15 AM 44.6 °F 44.6 °F 100% 30.12 in 3.0 mi Calm Calm - N/A   Clear
7:30 AM 46.4 °F 44.6 °F 93% 30.12 in 3.0 mi Calm Calm - N/A Fog Fog
7:55 AM 53.6 °F 51.8 °F 94% 30.14 in 7.0 mi Calm Calm - N/A Fog Fog
8:50 AM 59.0 °F 55.4 °F 88% 30.15 in 10.0 mi Calm Calm - N/A   Clear
9:50 AM 66.2 °F 55.4 °F 68% 30.16 in 10.0 mi North 9.2 mph - N/A   Clear
10:55 AM 69.8 °F 46.4 °F 43% 30.15 in 10.0 mi NW 10.4 mph - N/A   Clear
11:55 AM 71.6 °F 44.6 °F 38% 30.14 in 10.0 mi NNW 11.5 mph - N/A   Clear
12:50 PM 73.4 °F 44.6 °F 36% 30.12 in 10.0 mi NNW 11.5 mph - N/A   Clear
1:50 PM 73.4 °F 46.4 °F 38% 30.10 in 10.0 mi NNW 9.2 mph - N/A   Clear
3:50 PM 73.4 °F 42.8 °F 33% 30.10 in 10.0 mi North 4.6 mph - N/A   Clear
4:50 PM 73.4 °F 42.8 °F 33% 30.11 in 10.0 mi NNW 4.6 mph - N/A   Clear
5:55 PM 60.8 °F 51.8 °F 72% 30.12 in 10.0 mi Calm Calm - N/A   Clear
6:15 PM 60.8 °F 50.0 °F 68% 30.13 in 10.0 mi Calm Calm - N/A   Clear
6:35 PM 59.0 °F 50.0 °F 72% 30.13 in 10.0 mi Calm Calm - N/A   Clear
6:55 PM 57.2 °F 50.0 °F 77% 30.13 in 10.0 mi Calm Calm - N/A   Clear
7:15 PM 57.2 °F 50.0 °F 77% 30.14 in 10.0 mi Calm Calm - N/A   Clear
7:35 PM 57.2 °F 50.0 °F 77% 30.14 in 10.0 mi Calm Calm - N/A   Clear
7:55 PM 55.4 °F 50.0 °F 82% 30.15 in 10.0 mi Calm Calm - N/A   Clear
8:15 PM 53.6 °F 48.2 °F 82% 30.15 in 10.0 mi Calm Calm - N/A   Clear
8:35 PM 53.6 °F 48.2 °F 82% 30.16 in 10.0 mi Calm Calm - N/A   Clear
8:55 PM 53.6 °F 48.2 °F 82% 30.16 in 10.0 mi NNE 4.6 mph - N/A   Clear
9:35 PM 53.6 °F 48.2 °F 82% 30.17 in 10.0 mi NE 5.8 mph - N/A   Clear
9:55 PM 55.4 °F 48.2 °F 77% 30.17 in 10.0 mi ENE 6.9 mph - N/A   Clear
10:15 PM 57.2 °F 50.0 °F 77% 30.17 in 10.0 mi NE 5.8 mph - N/A   Clear
10:35 PM 55.4 °F 50.0 °F 82% 30.17 in 10.0 mi ENE 6.9 mph - N/A   Clear
10:55 PM 55.4 °F 50.0 °F 82% 30.17 in 10.0 mi ENE 5.8 mph - N/A   Clear
11:15 PM 55.4 °F 50.0 °F 82% 30.17 in 10.0 mi NE 6.9 mph - N/A   Clear
11:35 PM 55.4 °F 51.8 °F 88% 30.17 in 10.0 mi NE 5.8 mph - N/A   Clear
11:55 PM 55.4 °F 50.0 °F 82% 30.17 in 10.0 mi ENE 6.9 mph - N/A   Clear